Temperature
9 9 9 8 8 8 8 8 8 8 8 8 8 8 8 8 8 8 8 8 8 8 8 8 8 8 8 7 7 7 7 7 7 7 7 8 7 7 7 7 7 7 7
8 8 8 8 8 8 8 8 8 8 8 8 8 8 8 8 8 8 7 7 7 7 7 7 7 7 7 7 7 7 7 7 6 6 6 6 6 6 7 7 7 6 6
7 8 8 8 8 8 8 8 7 7 7 7 7 7 7 7 7 7 7 7 7 7 7 6 6 6 6 6 6 6 6 6 6 5 5 5 5 5 5 6 6 6 6
7 7 7 7 7 7 7 7 7 7 7 7 7 7 7 7 7 6 6 6 6 6 6 6 6 6 6 6 6 6 5 5 5 5 5 5 4 4 4 5 5 5 5
7 7 7 7 7 7 7 7 7 7 6 6 6 6 6 6 6 6 6 6 6 6 5 5 5 5 5 5 5 5 5 5 5 4 4 4 4 4 4 4 4 5 5
6 6 6 6 6 6 6 6 6 6 6 6 6 5 5 5 5 5 5 5 5 5 5 5 5 5 5 5 5 4 4 4 4 4 4 3 3 3 3 3 3 4 4
5 6 6 6 6 6 6 6 6 6 5 5 5 5 5 5 5 5 4 5 5 4 4 4 4 4 4 4 4 4 4 4 4 3 3 3 3 3 3 3 3 3 3
5 5 5 5 5 5 5 5 5 5 5 5 5 4 4 4 4 4 4 4 4 4 4 4 4 3 4 4 4 3 3 3 3 3 3 3 3 2 2 2 2 2 2
4 5 5 5 5 5 5 5 5 5 5 4 4 4 4 4 4 3 3 3 3 3 3 3 3 3 3 3 3 3 3 3 3 2 2 2 2 2 2 2 2 1 1
4 4 4 4 4 4 4 4 4 4 4 4 4 4 3 3 3 3 3 3 3 3 2 2 2 3 3 2 2 2 2 2 2 2 2 2 2 2 1 1 1 1 1
4 4 4 4 4 4 4 4 4 4 4 3 3 3 3 3 2 2 2 2 2 2 2 2 2 2 2 2 2 2 2 1 1 1 1 1 1 1 1 1 1 1 0
3 3 3 3 3 3 3 3 3 3 3 3 3 3 2 2 2 2 2 2 2 2 2 1 1 1 1 1 1 1 1 1 1 1 1 1 1 1 0 0 0 0 0
3 3 3 3 3 3 3 3 3 3 2 2 2 2 2 2 2 2 2 1 1 1 1 1 1 1 1 1 1 1 1 0 0 0 0 0 0 0 0 -0 -0 -0 -0
2 2 2 2 2 2 2 2 2 2 2 2 2 2 2 1 1 1 1 1 1 1 1 1 1 1 1 1 1 0 0 0 -0 -0 -0 -0 -0 -0 -0 -1 -1 -1 -1
2 2 2 2 2 2 2 2 2 2 1 1 1 1 1 1 1 1 1 1 0 0 0 0 0 -0 -0 0 0 -0 -0 -0 -0 -0 -1 -1 -1 -1 -1 -1 -1 -1 -1
1 1 1 1 1 1 1 1 1 1 1 1 1 1 1 0 0 0 0 0 -0 -0 -0 -0 -1 -1 -1 -1 -1 -1 -1 -1 -1 -1 -1 -1 -1 -1 -1 -1 -1 -1 -1
1 1 1 1 1 1 1 1 1 1 1 0 0 0 0 -0 -0 -0 -0 -1 -1 -1 -1 -1 -1 -1 -1 -1 -1 -1 -1 -1 -1 -1 -1 -1 -1 -1 -1 -1 -2 -2 -1
1 1 1 0 0 0 0 0 0 0 0 0 -0 -0 -0 -1 -1 -1 -1 -1 -1 -1 -1 -1 -1 -1 -1 -2 -2 -2 -2 -2 -2 -2 -2 -2 -2 -2 -2 -2 -2 -2 -2
1 0 0 -0 -0 -0 -0 -0 -0 -0 -0 -1 -1 -1 -1 -1 -1 -1 -1 -2 -2 -2 -2 -2 -2 -2 -2 -2 -2 -2 -2 -2 -2 -2 -2 -2 -2 -2 -2 -2 -2 -2 -2
0 0 -0 -0 -0 -0 -1 -1 -1 -1 -1 -1 -1 -1 -1 -1 -2 -2 -2 -2 -2 -2 -2 -2 -2 -2 -2 -2 -3 -3 -3 -3 -3 -3 -3 -3 -3 -3 -3 -3 -2 -2 -2
-0 -0 -1 -1 -1 -1 -1 -1 -1 -1 -1 -1 -1 -2 -2 -2 -2 -2 -2 -2 -2 -2 -2 -2 -3 -3 -3 -3 -3 -3 -3 -3 -3 -3 -3 -3 -3 -3 -3 -3 -3 -3 -3
-1 -1 -1 -1 -1 -1 -1 -2 -2 -2 -2 -2 -2 -2 -2 -2 -3 -3 -3 -3 -3 -3 -3 -3 -3 -3 -3 -3 -3 -3 -3 -3 -3 -3 -3 -3 -3 -3 -3 -3 -3 -3 -3
-1 -1 -1 -2 -2 -2 -2 -2 -2 -2 -2 -2 -2 -2 -3 -3 -3 -3 -3 -3 -3 -3 -3 -3 -3 -3 -3 -4 -4 -4 -4 -4 -4 -3 -3 -3 -3 -3 -3 -3 -3 -3 -3
-1 -2 -2 -2 -2 -2 -2 -2 -2 -3 -2 -2 -2 -3 -3 -3 -3 -3 -3 -3 -3 -4 -4 -4 -4 -4 -4 -4 -4 -4 -4 -4 -4 -4 -4 -4 -3 -3 -4 -3 -3 -3 -4
-2 -2 -2 -2 -2 -2 -2 -3 -3 -3 -3 -3 -3 -3 -3 -3 -3 -4 -4 -4 -4 -4 -4 -4 -4 -4 -4 -4 -4 -4 -4 -4 -4 -4 -4 -4 -4 -4 -4 -4 -4 -4 -4
-2 -2 -2 -2 -3 -3 -3 -3 -3 -3 -3 -3 -3 -3 -4 -4 -4 -4 -4 -4 -4 -4 -4 -4 -4 -4 -4 -4 -4 -4 -4 -4 -4 -4 -4 -4 -4 -4 -4 -4 -4 -4 -4
Wind_Speed
3 2 1 2 2 3 3 3 4 3 3 2 2 2 2 2 1 1 2 2 2 3 3 2 2 2 2 1 1 1 1 1 1 1 2 2 1 1 1 1 1 1 2
2 1 0 1 2 3 3 3 4 4 4 3 3 2 2 1 1 1 1 1 2 3 3 3 2 2 1 1 1 1 1 1 1 1 0 2 2 2 1 1 1 1 2
4 2 1 2 1 1 2 3 4 4 4 3 2 2 2 2 1 1 0 1 1 2 2 3 2 2 2 1 1 2 2 1 0 0 1 1 2 2 2 1 1 1 1
3 2 2 2 2 2 1 2 2 3 3 4 4 4 3 2 2 1 1 1 1 2 2 2 2 2 2 2 1 1 2 2 2 1 0 1 1 1 2 3 2 2 2
3 3 3 2 2 1 1 1 2 3 3 3 4 4 3 2 1 1 1 1 1 1 1 2 2 1 1 2 2 1 2 2 2 2 1 1 1 1 2 3 3 3 2
2 2 1 0 1 1 1 1 2 2 3 3 3 4 4 3 2 1 1 0 0 0 1 1 1 1 1 2 2 2 3 2 2 2 2 2 2 2 2 3 3 4 3
1 1 0 0 1 1 0 1 2 2 2 2 3 3 4 4 4 3 2 1 1 1 1 1 1 1 2 2 2 2 2 3 3 3 3 3 3 2 2 3 3 4 3
2 2 2 1 1 0 0 1 2 2 2 2 2 2 2 2 2 2 3 2 2 2 2 2 2 2 2 2 2 2 2 2 3 4 3 3 3 3 3 3 2 3 3
2 2 2 1 1 1 1 1 2 2 2 2 2 1 2 2 2 2 2 2 2 2 1 2 2 2 2 2 2 2 3 3 3 4 4 4 3 3 3 3 3 3 4
2 2 2 1 1 1 1 0 1 2 2 2 2 1 1 2 2 2 2 2 1 1 2 2 2 2 2 2 2 2 2 3 3 3 4 4 3 3 3 3 3 4 4
2 2 2 2 1 1 0 0 0 1 1 1 1 1 1 1 1 1 2 2 1 2 2 2 2 2 2 2 3 3 3 4 4 3 4 4 4 3 3 3 3 3 4
2 2 2 1 1 1 1 1 0 1 1 1 1 1 1 1 1 1 2 1 2 2 2 2 2 3 3 3 3 4 4 4 4 4 4 5 4 4 3 3 4 4 4
2 2 1 1 2 2 2 1 1 1 1 1 1 1 1 1 2 2 2 2 2 2 2 3 3 3 3 3 4 4 4 5 5 5 5 5 4 4 3 3 4 4 3
2 1 2 3 3 2 2 2 1 1 1 1 1 1 2 2 2 2 2 2 2 2 3 3 4 4 4 4 4 4 4 5 5 5 5 5 5 5 5 4 4 4 3
3 3 3 3 3 3 2 2 1 1 1 1 1 2 2 2 2 2 2 2 2 3 3 3 3 3 3 4 4 5 5 5 5 5 5 5 6 7 6 5 4 4 3
4 3 3 3 3 3 2 2 1 1 0 1 2 2 1 2 2 2 2 2 2 3 2 3 3 3 4 6 7 5 5 5 5 5 5 5 6 7 8 9 8 6 5
4 4 4 4 4 3 2 2 2 1 0 1 1 1 2 2 2 2 2 3 3 3 3 3 3 4 5 7 7 7 5 5 5 5 5 5 5 6 5 7 7 7 8
4 4 4 3 3 3 2 1 1 1 1 1 2 2 2 2 2 2 2 3 3 3 3 3 4 4 5 7 7 6 4 4 5 5 6 6 5 6 5 5 5 5 5
4 4 4 4 3 2 2 1 1 1 1 2 3 2 2 2 2 3 3 3 3 3 3 3 4 4 5 7 7 6 3 4 4 5 5 5 5 8 7 5 4 4 4
3 3 3 2 2 2 1 1 1 1 2 3 3 3 2 2 3 3 3 3 3 3 3 4 4 5 5 7 7 6 3 4 4 4 5 7 7 8 7 4 4 4 3
3 2 2 2 2 1 1 1 1 3 3 3 2 2 2 3 3 3 3 3 3 3 3 4 4 5 6 7 7 6 3 4 4 4 3 4 7 7 6 5 4 4 3
3 2 1 2 2 1 1 1 3 3 2 2 2 3 3 2 2 2 3 2 2 3 3 3 4 4 5 5 6 6 5 4 3 4 3 4 6 6 5 4 3 3 2
2 2 1 2 2 1 1 2 3 2 2 2 2 3 3 2 2 2 3 2 2 2 3 3 3 3 3 4 5 6 6 5 3 3 4 4 4 4 3 3 3 1 1
2 2 1 1 3 2 2 3 3 2 1 2 3 2 2 2 2 2 3 2 2 3 3 3 3 3 3 3 3 3 4 4 3 2 2 2 2 1 1 1 1 1 2
2 2 2 2 3 3 3 2 2 1 1 2 2 2 2 2 3 3 3 3 4 4 4 4 4 4 4 4 5 3 2 2 2 1 1 0 0 0 1 1 1 1 1
2 2 2 2 3 3 3 3 2 1 1 2 2 2 2 2 2 2 3 4 4 6 6 6 5 5 6 6 5 4 4 3 2 1 1 1 1 2 1 1 1 1 1
Wind_Direction
259 249 186 156 156 168 167 173 168 170 154 150 156 161 180 190 180 161 159 156 160 153 137 123 123 123 147 171 153 129 57 7 351 23 331 318 295 257 269 261 262 327 337
270 265 212 145 174 181 181 177 179 178 179 178 179 173 160 160 149 104 76 143 157 156 151 137 147 147 150 149 148 127 116 30 42 110 33 327 326 317 285 274 235 288 340
236 243 221 217 214 208 191 188 189 188 189 169 139 117 97 77 80 84 133 66 113 140 143 139 135 142 155 186 194 158 150 185 277 119 152 180 256 297 303 291 292 316 314
240 241 232 229 224 227 207 180 173 163 159 151 154 153 160 177 196 182 170 86 91 109 134 133 130 146 161 180 209 171 172 177 205 225 216 200 181 227 304 308 304 303 291
235 236 234 232 239 217 177 168 148 142 137 143 153 155 164 164 141 136 142 139 97 105 112 133 133 163 171 179 186 178 185 193 197 199 201 216 226 211 228 279 302 310 288
252 247 254 46 9 51 82 126 140 139 142 148 155 165 172 163 152 174 181 196 56 85 122 144 160 183 181 189 198 197 195 201 203 209 209 206 200 211 220 250 279 290 292
262 249 270 1 359 17 82 130 136 148 156 158 169 181 183 178 185 195 200 200 220 251 248 218 198 212 203 197 186 188 207 206 209 217 224 225 228 218 222 242 268 281 289
311 269 239 227 228 239 212 166 166 172 164 168 189 191 184 181 191 197 199 201 213 224 228 225 211 216 213 206 187 200 219 215 220 230 228 234 239 226 222 224 242 283 288
302 291 277 252 232 227 237 211 195 193 181 182 183 188 193 186 192 198 193 204 209 219 211 222 231 233 226 217 204 214 224 223 228 236 235 236 243 228 226 227 224 231 269
321 310 298 285 267 244 261 240 193 207 203 181 184 207 201 193 188 185 202 210 217 223 210 226 235 238 235 223 211 221 224 226 240 240 238 241 245 236 228 225 227 224 233
299 305 309 313 314 331 2 331 202 195 212 193 181 177 198 182 176 198 220 218 219 226 225 232 239 237 238 233 222 226 225 231 245 247 240 244 245 241 234 228 229 230 227
285 293 305 331 339 334 326 297 264 231 232 201 174 184 198 192 210 234 244 224 224 238 239 234 237 241 245 243 235 238 237 230 239 246 245 248 248 247 237 230 235 238 234
299 313 331 322 308 305 303 291 274 256 231 180 166 178 209 216 236 248 253 245 236 246 246 232 235 241 243 245 243 238 238 237 238 240 244 248 242 251 248 238 239 239 245
274 290 307 300 292 290 287 283 282 261 227 177 178 217 238 237 246 252 252 250 240 246 245 241 240 241 242 242 245 240 239 242 243 241 241 240 236 239 242 241 236 231 235
264 271 280 287 293 293 297 300 291 278 246 195 221 247 256 257 260 265 263 259 249 251 248 248 249 251 248 245 243 235 237 237 241 244 243 241 244 246 248 246 235 224 227
261 267 273 278 280 276 277 284 286 282 243 243 261 270 268 267 265 270 270 271 264 265 259 255 251 254 258 265 264 254 237 236 235 242 246 246 248 251 260 259 253 239 231
262 265 265 265 268 270 265 264 273 276 250 263 279 272 262 268 275 277 276 272 266 262 260 262 257 255 262 272 272 266 255 238 235 233 238 252 255 256 248 256 261 259 252
252 259 264 269 272 267 270 278 293 294 278 277 281 279 274 272 275 274 276 273 260 257 258 262 261 262 271 279 278 275 263 246 239 235 235 240 251 249 245 239 244 245 248
252 251 251 261 264 259 251 244 289 284 281 279 278 275 275 272 267 270 272 268 256 258 259 262 257 258 273 281 279 273 252 246 250 247 241 241 246 255 253 238 243 256 262
270 256 260 264 259 260 205 177 252 270 274 277 279 282 275 268 265 266 266 265 252 255 258 262 255 254 263 276 276 269 244 243 250 252 250 252 252 255 253 229 227 248 261
288 271 259 263 259 245 181 210 254 269 276 283 287 290 283 272 269 274 269 264 259 260 257 262 263 257 263 273 273 270 246 232 242 252 252 251 260 265 263 253 233 245 259
307 292 282 292 287 239 186 232 263 277 292 293 294 293 288 282 282 271 275 266 252 255 262 267 274 264 265 273 273 274 267 261 241 248 249 250 261 267 267 264 255 258 267
286 290 264 297 308 289 221 237 270 284 293 298 297 298 296 288 282 265 266 264 247 250 263 262 270 276 269 265 273 274 276 274 259 251 260 269 272 270 264 262 253 243 194
276 282 270 279 296 301 282 254 273 279 274 287 297 298 296 293 288 275 261 253 248 248 254 261 265 271 274 261 253 249 257 266 264 262 269 287 290 295 287 267 256 233 208
285 271 251 261 278 290 289 283 279 264 273 284 292 295 291 288 288 280 268 260 250 250 248 250 253 258 263 267 266 260 243 236 236 237 208 107 331 253 265 269 265 221 206
275 273 267 265 277 284 289 291 287 251 252 278 287 288 289 289 291 295 308 299 282 284 271 265 265 268 271 279 274 272 271 271 266 218 196 216 237 243 245 254 279 263 239
Height
1480 1480 1481 1481 1482 1483 1483 1484 1485 1486 1487 1488 1489 1490 1491 1493 1494 1495 1496 1497 1498 1499 1500 1500 1501 1502 1503 1503 1504 1504 1505 1505 1505 1505 1505 1505 1506 1506 1506 1507 1507 1507 1507
1476 1477 1478 1478 1479 1479 1480 1480 1481 1483 1484 1485 1486 1487 1488 1489 1491 1492 1493 1494 1495 1496 1496 1497 1498 1499 1499 1500 1500 1501 1501 1502 1502 1503 1502 1502 1503 1502 1502 1503 1503 1504 1504
1473 1473 1474 1475 1476 1476 1476 1477 1478 1479 1480 1481 1483 1484 1485 1486 1487 1488 1489 1490 1491 1492 1493 1494 1495 1495 1496 1496 1497 1498 1498 1499 1499 1500 1501 1500 1499 1499 1499 1499 1499 1500 1500
1470 1471 1472 1472 1472 1473 1474 1474 1475 1476 1477 1478 1479 1480 1481 1482 1483 1484 1485 1487 1488 1488 1489 1490 1491 1492 1492 1493 1494 1494 1495 1496 1496 1497 1497 1499 1498 1498 1495 1495 1495 1495 1496
1468 1469 1469 1470 1471 1471 1471 1472 1472 1473 1475 1476 1477 1478 1479 1480 1481 1482 1483 1484 1485 1485 1486 1487 1487 1488 1489 1490 1490 1491 1492 1492 1492 1493 1494 1494 1494 1494 1494 1492 1491 1491 1492
1466 1467 1467 1468 1468 1469 1469 1470 1470 1471 1472 1473 1474 1475 1476 1477 1478 1479 1479 1480 1481 1482 1483 1484 1484 1485 1486 1486 1487 1487 1488 1488 1489 1489 1490 1490 1490 1490 1490 1489 1487 1486 1487
1464 1464 1465 1465 1466 1466 1467 1467 1468 1469 1470 1471 1472 1473 1474 1474 1475 1476 1476 1477 1478 1478 1479 1480 1481 1482 1482 1483 1483 1483 1484 1484 1485 1485 1485 1486 1486 1487 1487 1486 1484 1483 1482
1463 1463 1463 1464 1464 1465 1465 1466 1466 1467 1468 1469 1469 1470 1471 1471 1472 1473 1473 1474 1475 1475 1476 1477 1477 1478 1478 1479 1479 1479 1480 1480 1480 1481 1481 1481 1482 1482 1482 1482 1482 1479 1478
1462 1462 1462 1462 1463 1463 1464 1464 1465 1465 1466 1466 1467 1467 1468 1468 1469 1470 1470 1471 1471 1472 1473 1473 1473 1474 1474 1474 1475 1475 1475 1476 1476 1476 1477 1477 1477 1477 1478 1478 1478 1478 1475
1461 1461 1461 1461 1461 1462 1462 1463 1463 1463 1463 1464 1464 1465 1465 1466 1466 1467 1467 1468 1468 1469 1469 1469 1470 1470 1470 1470 1470 1470 1471 1471 1471 1472 1472 1472 1472 1473 1473 1473 1473 1473 1473
1460 1460 1460 1460 1460 1460 1460 1461 1460 1461 1461 1461 1461 1462 1462 1463 1463 1464 1464 1464 1464 1465 1465 1465 1466 1466 1466 1466 1466 1466 1466 1467 1467 1467 1467 1467 1468 1468 1468 1468 1468 1468 1468
1459 1459 1459 1458 1458 1458 1458 1458 1458 1458 1458 1458 1459 1459 1459 1460 1460 1460 1461 1461 1461 1461 1461 1462 1462 1462 1462 1462 1462 1462 1462 1462 1462 1463 1463 1463 1463 1463 1463 1463 1463 1463 1463
1458 1457 1457 1457 1456 1456 1456 1456 1456 1456 1456 1456 1456 1456 1456 1456 1457 1457 1457 1457 1457 1457 1457 1457 1457 1457 1457 1457 1457 1458 1458 1458 1458 1458 1458 1458 1458 1458 1458 1458 1458 1458 1458
1456 1455 1455 1455 1454 1454 1454 1453 1453 1453 1453 1453 1453 1453 1453 1453 1454 1453 1453 1453 1453 1453 1453 1453 1453 1453 1453 1453 1453 1453 1453 1453 1453 1453 1453 1453 1453 1453 1453 1453 1453 1454 1454
1453 1453 1453 1452 1452 1451 1451 1451 1451 1451 1450 1450 1450 1450 1450 1450 1450 1450 1450 1450 1449 1449 1449 1449 1449 1449 1448 1448 1448 1448 1448 1448 1448 1448 1448 1448 1448 1448 1449 1449 1449 1450 1450
1451 1451 1450 1450 1449 1449 1448 1448 1448 1448 1447 1447 1447 1447 1447 1447 1446 1446 1446 1446 1445 1445 1445 1445 1444 1444 1444 1444 1444 1443 1443 1443 1443 1443 1443 1443 1444 1444 1444 1444 1445 1446 1446
1449 1448 1448 1447 1447 1446 1445 1445 1445 1445 1445 1445 1444 1444 1443 1443 1442 1442 1442 1442 1442 1441 1441 1441 1440 1440 1440 1440 1439 1439 1439 1439 1438 1438 1439 1439 1439 1439 1439 1440 1440 1441 1441
1446 1445 1445 1444 1444 1443 1443 1442 1442 1442 1442 1442 1441 1441 1440 1439 1439 1439 1438 1438 1438 1437 1437 1436 1436 1436 1435 1435 1435 1435 1435 1434 1434 1434 1434 1434 1434 1434 1435 1435 1436 1436 1436
1443 1443 1442 1442 1441 1440 1440 1439 1439 1439 1439 1438 1438 1437 1437 1436 1436 1435 1435 1434 1434 1434 1433 1433 1432 1432 1431 1431 1431 1431 1430 1430 1430 1430 1430 1430 1430 1430 1431 1431 1431 1431 1431
1440 1440 1439 1439 1438 1438 1437 1436 1436 1436 1435 1435 1435 1434 1434 1433 1432 1432 1431 1431 1431 1430 1429 1429 1428 1428 1427 1427 1427 1427 1426 1426 1425 1426 1426 1426 1426 1426 1427 1427 1427 1427 1427
1437 1437 1436 1436 1435 1435 1434 1434 1433 1433 1433 1432 1432 1431 1430 1430 1429 1428 1428 1428 1427 1426 1426 1425 1425 1424 1424 1423 1423 1423 1422 1422 1421 1421 1422 1422 1422 1423 1423 1423 1423 1424 1424
1435 1434 1434 1433 1433 1432 1432 1431 1430 1430 1430 1429 1429 1428 1427 1427 1426 1425 1425 1424 1423 1423 1422 1421 1421 1420 1420 1420 1419 1419 1419 1419 1418 1418 1418 1418 1419 1419 1420 1420 1420 1420 1421
1433 1432 1431 1431 1430 1430 1430 1429 1428 1428 1427 1426 1425 1425 1424 1424 1423 1422 1422 1421 1420 1419 1418 1418 1417 1417 1416 1416 1416 1416 1416 1416 1416 1415 1416 1416 1416 1416 1416 1416 1417 1417 1417
1430 1430 1429 1428 1428 1428 1428 1427 1426 1425 1424 1423 1423 1422 1421 1421 1420 1419 1419 1418 1417 1416 1415 1414 1414 1413 1413 1413 1412 1412 1413 1413 1413 1413 1413 1413 1413 1414 1414 1414 1414 1414 1414
1428 1428 1427 1426 1426 1425 1425 1424 1423 1423 1422 1421 1420 1419 1419 1418 1417 1416 1416 1415 1414 1414 1413 1411 1411 1410 1410 1410 1410 1410 1410 1410 1410 1410 1410 1411 1411 1411 1411 1411 1411 1411 1411
1426 1425 1425 1424 1423 1423 1422 1421 1421 1420 1419 1418 1417 1417 1416 1415 1415 1414 1413 1412 1412 1411 1410 1409 1409 1408 1408 1408 1407 1407 1408 1408 1408 1408 1408 1408 1408 1408 1408 1408 1408 1408 1408